Weather in Calabasas

United States     34°08′09″N   118°41′04″W
temp.,
°C
wind,
m/s
gust,
m/s
humid.,
%
clouds,
%
prec.,
mm/h
press.,
hPa
HPBL,
m
16 may, sun
sun1623:00+12wsw2383100 0.1 1014393
02:00+11wnw1184100 0.1 1014296
05:00+12w1182100 0.1 1013215
08:00+12sw1177100 0.0 1015449
11:00+14se3367100 0.1 10151048
14:00+16se2264100 0.1 10151144
17:00+16sw326397 0.1 1014912
20:00+13wsw447857 0.0 1014247
17 may, mon
mon1723:00+9w229550 0.0 101673
02:00+10nw119175 0.0 1016162
05:00+11ne118782 0.0 1016118
08:00+14se117469 0.0 1016478
11:00+19ssw21510 0.0 10151011
14:00+23wsw64430 0.0 10141096
17:00+18w54573 0.0 1014619
20:00+12w22814 0.0 101453
18 may, tue
tue1823:00+11se11852 0.0 101542
02:00+11e12880 0.0 101448
05:00+10ssw11920 0.0 101426
08:00+14w11780 0.0 1015298
11:00+22wsw32400 0.0 1013812
14:00+25w64370 0.0 1011836
17:00+27w32320 0.0 1009759
20:00+17wsw22592 0.0 101028
19 may, wed
wed1923:00+14w22760 0.0 101241
02:00+12ene11775 0.0 101017
05:00+11w11760 0.0 101123
08:00+17sse01460 0.0 1011303
11:00+23sw32340 0.0 10101040
14:00+25wsw65370 0.0 10091062
17:00+21wsw55340 0.0 1009583
20:00+14sw22560 0.0 100861
20 may, thu
thu2023:00+14se33610 0.0 101053
02:00+12ese33730 0.0 101163
05:00+11ese338520 0.0 101174
08:00+14e226689 0.0 1011805
11:00+18s435240 0.0 10111397
14:00+19sw435150 0.0 10101329
17:00+19sw54340 0.0 1008987
20:00+13sw22420 0.0 100877